Total_Precipitation_Accumulation
0.05 0.06 0.07 0.06 0.06 0.05 0.07 0.07 0.06 0.04 0.04 0.03 0.04 0.04 0.05 0.04 0.03 0.03 0.02 0.03 0.02 0.03 0.03 0.02 0.03 0.03 0.02 0.02 0.01 0.00 0.00 0.00 0.00 0.00 0.00 0.00 0.00 0.00 0.00 0.00 0.00 0.00 0.00 0.00 0.00 0.00 0.01 0.00 0.00 0.00 0.00 0.00 0.00 0.14 0.26 0.10 0.49 1.13 2.70 3.85 4.01 3.92 3.89 2.10 2.86 2.25 2.68 3.83 2.26 1.88 2.03 2.29 2.03 1.35 1.63 1.47 1.32 1.59 0.68 0.97 0.24 0.12 0.45 0.36 0.23 0.06 0.03 0.02
0.05 0.07 0.06 0.05 0.04 0.05 0.05 0.05 0.04 0.04 0.04 0.04 0.04 0.04 0.04 0.03 0.03 0.03 0.03 0.02 0.03 0.03 0.02 0.03 0.03 0.03 0.03 0.01 0.00 0.00 0.01 0.00 0.00 0.00 0.00 0.00 0.00 0.00 0.00 0.00 0.00 0.00 0.00 0.00 0.00 0.00 0.00 0.00 0.00 0.00 0.00 0.00 0.00 0.08 0.05 0.92 0.25 0.73 1.59 3.10 4.08 2.88 2.71 1.84 1.98 1.42 3.31 3.40 2.29 2.41 1.93 2.47 2.31 1.92 1.01 1.54 1.42 1.17 0.79 0.89 0.93 0.62 0.42 0.16 0.06 0.05 0.03 0.05
0.06 0.05 0.05 0.03 0.03 0.04 0.03 0.04 0.03 0.03 0.04 0.04 0.04 0.04 0.03 0.03 0.02 0.03 0.03 0.03 0.03 0.02 0.03 0.03 0.04 0.03 0.01 0.01 0.00 0.00 0.02 0.00 0.00 0.00 0.00 0.00 0.00 0.00 0.00 0.00 0.00 0.00 0.00 0.00 0.00 0.00 0.00 0.00 0.00 0.00 0.00 0.00 0.00 0.07 0.09 0.56 0.50 0.58 0.85 2.13 1.77 1.34 2.01 2.03 1.76 1.34 1.52 1.81 2.62 1.80 1.62 2.65 1.92 1.65 1.07 2.03 0.96 0.65 1.22 0.97 0.81 0.89 0.50 0.20 0.11 0.07 0.06 0.12
0.05 0.05 0.03 0.03 0.04 0.03 0.04 0.03 0.03 0.03 0.04 0.05 0.04 0.03 0.03 0.02 0.02 0.03 0.04 0.03 0.01 0.02 0.03 0.04 0.03 0.01 0.01 0.00 0.00 0.01 0.00 0.00 0.00 0.00 0.00 0.00 0.00 0.00 0.00 0.00 0.00 0.00 0.00 0.00 0.00 0.00 0.00 0.00 0.00 0.00 0.00 0.00 0.01 0.03 0.01 0.03 0.80 0.57 0.72 1.81 1.02 0.92 2.22 1.75 1.84 1.67 1.22 1.77 2.13 1.95 1.19 1.81 1.91 2.23 1.80 1.65 1.19 1.57 1.34 1.04 0.75 0.89 0.32 0.12 0.07 0.09 0.06 0.14
0.05 0.04 0.03 0.03 0.03 0.04 0.03 0.03 0.03 0.04 0.05 0.04 0.04 0.03 0.03 0.02 0.03 0.03 0.03 0.02 0.02 0.02 0.03 0.03 0.02 0.01 0.00 0.00 0.00 0.00 0.00 0.00 0.00 0.00 0.00 0.00 0.00 0.00 0.00 0.00 0.00 0.00 0.00 0.00 0.00 0.00 0.00 0.00 0.00 0.00 0.00 0.01 0.00 0.01 0.00 0.01 0.01 0.04 0.47 0.66 0.89 1.07 1.94 1.15 1.30 0.92 0.93 1.54 1.97 1.81 1.90 2.63 1.22 1.76 2.20 3.12 3.92 1.95 2.54 0.54 0.63 0.55 0.43 0.14 0.05 0.06 0.04 0.10
0.05 0.04 0.03 0.03 0.03 0.03 0.04 0.03 0.04 0.05 0.05 0.04 0.04 0.03 0.03 0.03 0.02 0.02 0.02 0.02 0.03 0.02 0.02 0.02 0.01 0.00 0.00 0.00 0.00 0.01 0.00 0.00 0.00 0.00 0.00 0.00 0.00 0.00 0.00 0.00 0.00 0.00 0.00 0.00 0.00 0.00 0.00 0.00 0.00 0.00 0.00 0.00 0.03 0.01 0.01 0.00 0.03 0.50 0.24 0.21 0.25 0.52 0.94 1.24 1.32 0.78 0.99 1.60 1.56 2.28 2.69 1.59 1.98 2.99 2.01 1.98 3.48 2.03 1.11 0.53 0.26 0.14 0.22 0.12 0.02 0.02 0.05 0.07
0.04 0.03 0.03 0.02 0.03 0.03 0.03 0.04 0.04 0.03 0.05 0.04 0.04 0.03 0.03 0.03 0.01 0.01 0.02 0.02 0.02 0.02 0.02 0.01 0.01 0.01 0.00 0.00 0.00 0.00 0.00 0.00 0.00 0.00 0.00 0.00 0.00 0.00 0.00 0.00 0.00 0.00 0.00 0.00 0.00 0.00 0.00 0.00 0.00 0.00 0.00 0.00 0.00 0.00 0.00 0.00 0.03 0.00 0.51 0.14 0.23 0.22 0.64 0.99 1.90 1.58 2.45 2.64 2.56 2.54 1.50 1.94 2.40 2.56 1.77 2.08 1.11 0.96 0.83 0.45 0.48 0.14 0.20 0.03 0.03 0.03 0.04 0.03
0.04 0.02 0.02 0.02 0.03 0.03 0.03 0.03 0.03 0.03 0.02 0.03 0.03 0.03 0.02 0.01 0.02 0.02 0.01 0.02 0.02 0.02 0.01 0.01 0.01 0.00 0.00 0.00 0.00 0.00 0.00 0.00 0.00 0.00 0.00 0.00 0.00 0.00 0.00 0.00 0.00 0.00 0.00 0.00 0.00 0.00 0.00 0.00 0.00 0.00 0.00 0.01 0.00 0.00 0.01 0.03 0.01 0.37 0.80 0.51 0.40 0.23 0.53 0.97 1.75 3.08 2.73 2.80 3.03 2.60 1.90 2.20 2.39 2.52 1.27 2.34 1.26 0.60 0.90 0.49 0.50 0.18 0.05 0.10 0.06 0.03 0.04 0.08
0.03 0.03 0.02 0.02 0.03 0.03 0.03 0.03 0.02 0.02 0.02 0.02 0.02 0.02 0.02 0.02 0.02 0.01 0.01 0.02 0.02 0.01 0.01 0.01 0.01 0.00 0.02 0.01 0.00 0.00 0.00 0.00 0.00 0.00 0.00 0.00 0.00 0.00 0.00 0.00 0.00 0.00 0.00 0.00 0.00 0.00 0.00 0.00 0.00 0.00 0.01 0.00 0.00 0.00 0.00 0.05 0.78 0.08 0.10 0.24 0.48 0.46 0.43 1.32 1.39 1.85 1.95 2.93 2.88 2.51 2.50 2.62 1.87 1.83 2.36 2.41 1.00 0.87 0.69 0.55 0.45 0.18 0.04 0.05 0.12 0.03 0.05 0.05
0.02 0.02 0.02 0.03 0.03 0.03 0.03 0.02 0.02 0.02 0.02 0.02 0.02 0.02 0.02 0.01 0.01 0.02 0.01 0.01 0.01 0.01 0.01 0.01 0.00 0.00 0.00 0.00 0.00 0.00 0.00 0.00 0.00 0.00 0.00 0.00 0.00 0.00 0.00 0.00 0.00 0.00 0.00 0.00 0.00 0.00 0.00 0.00 0.00 0.00 0.00 0.00 0.00 0.00 0.00 0.06 0.34 0.01 0.05 0.12 0.33 0.63 0.75 0.75 1.40 1.31 2.14 3.05 2.75 2.93 2.51 2.36 2.44 1.56 3.21 1.18 1.00 0.77 0.64 0.59 0.57 0.45 0.34 0.13 0.14 0.09 0.25 0.56
0.02 0.01 0.01 0.02 0.02 0.02 0.02 0.02 0.02 0.03 0.03 0.02 0.02 0.02 0.01 0.02 0.01 0.01 0.01 0.00 0.00 0.00 0.01 0.01 0.00 0.01 0.00 0.00 0.00 0.00 0.00 0.00 0.00 0.00 0.00 0.00 0.00 0.00 0.00 0.00 0.00 0.00 0.00 0.00 0.00 0.00 0.00 0.00 0.00 0.00 0.00 0.00 0.00 0.01 0.00 0.11 0.01 0.04 0.26 0.16 0.32 0.82 1.14 1.07 1.23 1.42 2.03 3.24 3.38 2.60 3.09 2.47 2.39 1.48 3.32 1.58 0.78 0.88 0.90 0.68 0.40 1.14 0.69 0.25 0.13 0.19 0.55 0.57
0.01 0.01 0.01 0.01 0.02 0.02 0.01 0.02 0.02 0.02 0.02 0.02 0.01 0.01 0.01 0.01 0.01 0.00 0.01 0.00 0.00 0.01 0.01 0.01 0.01 0.00 0.00 0.00 0.00 0.00 0.00 0.00 0.00 0.00 0.00 0.00 0.00 0.00 0.00 0.00 0.00 0.00 0.00 0.00 0.00 0.00 0.00 0.00 0.00 0.00 0.00 0.00 0.00 0.00 0.11 0.00 0.06 0.32 0.22 0.67 0.62 0.59 1.13 1.27 1.36 2.19 1.70 2.47 3.57 3.68 3.24 2.71 1.65 2.41 1.64 0.85 0.80 1.40 1.12 0.96 1.04 0.41 0.61 0.15 0.12 0.18 0.58 0.63
0.01 0.01 0.02 0.01 0.01 0.02 0.02 0.02 0.02 0.02 0.01 0.01 0.01 0.01 0.01 0.01 0.01 0.01 0.00 0.00 0.00 0.00 0.02 0.01 0.01 0.00 0.00 0.00 0.00 0.00 0.00 0.00 0.00 0.00 0.00 0.00 0.00 0.00 0.00 0.00 0.00 0.00 0.00 0.00 0.00 0.00 0.00 0.00 0.00 0.00 0.00 0.00 0.00 0.03 0.17 0.16 0.05 0.16 0.60 1.02 0.64 0.96 1.42 1.27 1.75 2.09 1.54 2.15 2.21 3.16 3.42 2.79 2.65 1.96 1.30 0.90 1.29 1.24 1.45 1.66 1.02 0.74 0.50 0.50 0.28 0.13 0.35 0.55
0.01 0.01 0.01 0.01 0.01 0.01 0.02 0.02 0.02 0.02 0.02 0.01 0.01 0.01 0.01 0.01 0.00 0.00 0.00 0.00 0.00 0.00 0.00 0.01 0.00 0.00 0.00 0.00 0.00 0.00 0.00 0.00 0.00 0.00 0.00 0.00 0.00 0.00 0.00 0.00 0.00 0.00 0.00 0.00 0.00 0.00 0.00 0.00 0.00 0.00 0.00 0.00 0.00 0.00 0.01 0.01 0.04 0.36 1.00 0.54 1.44 1.05 1.95 0.71 1.37 1.92 2.38 2.12 2.57 1.37 3.27 3.86 2.78 1.66 1.42 1.33 1.37 1.32 1.43 1.37 0.99 1.23 1.02 0.69 0.30 0.24 0.39 0.47
0.01 0.01 0.01 0.01 0.02 0.01 0.02 0.02 0.02 0.01 0.02 0.01 0.01 0.01 0.01 0.00 0.00 0.00 0.00 0.00 0.00 0.00 0.01 0.00 0.00 0.00 0.00 0.00 0.00 0.00 0.00 0.00 0.00 0.00 0.00 0.00 0.00 0.00 0.00 0.00 0.00 0.00 0.00 0.00 0.00 0.00 0.00 0.00 0.00 0.00 0.00 0.00 0.00 0.00 0.00 0.04 0.35 0.29 0.35 0.72 0.52 0.33 1.67 1.09 0.84 0.76 1.73 1.50 1.67 1.19 2.43 2.92 2.48 2.46 1.29 1.11 1.63 2.29 2.04 1.38 1.39 1.07 0.67 1.17 1.39 0.54 0.66 0.74
0.00 0.01 0.01 0.01 0.02 0.01 0.01 0.01 0.01 0.01 0.01 0.01 0.01 0.01 0.00 0.00 0.00 0.00 0.00 0.00 0.00 0.00 0.01 0.00 0.00 0.00 0.00 0.00 0.00 0.00 0.00 0.00 0.00 0.00 0.00 0.00 0.00 0.00 0.00 0.00 0.00 0.00 0.00 0.00 0.00 0.00 0.00 0.00 0.00 0.00 0.00 0.00 0.00 0.00 0.13 0.10 0.48 0.26 0.11 0.27 0.31 0.42 0.99 1.33 0.67 0.95 1.39 0.73 1.55 1.67 2.89 2.30 2.90 2.49 2.12 1.63 1.99 1.90 2.19 1.61 0.98 0.81 0.86 0.94 0.76 1.04 0.47 0.54
0.00 0.00 0.01 0.01 0.01 0.01 0.01 0.01 0.01 0.01 0.01 0.01 0.00 0.00 0.00 0.00 0.00 0.00 0.00 0.00 0.01 0.00 0.00 0.00 0.00 0.00 0.00 0.00 0.00 0.00 0.00 0.00 0.00 0.00 0.00 0.00 0.00 0.00 0.00 0.00 0.00 0.00 0.00 0.00 0.00 0.00 0.00 0.00 0.00 0.00 0.00 0.00 0.00 0.00 0.05 0.18 0.12 0.09 0.03 0.15 0.16 0.36 0.34 1.07 0.78 1.23 1.10 0.81 1.54 1.38 1.88 2.40 1.76 1.55 1.69 1.44 1.66 1.83 2.32 1.85 1.29 0.95 1.19 0.57 1.07 0.40 0.52 0.55
0.00 0.00 0.00 0.01 0.01 0.02 0.01 0.01 0.01 0.01 0.01 0.00 0.00 0.00 0.00 0.00 0.00 0.00 0.00 0.00 0.00 0.00 0.00 0.00 0.00 0.00 0.00 0.00 0.00 0.00 0.00 0.00 0.00 0.00 0.00 0.00 0.00 0.00 0.00 0.00 0.00 0.00 0.00 0.00 0.00 0.00 0.00 0.00 0.00 0.00 0.00 0.00 0.00 0.00 0.04 0.14 0.05 0.04 0.06 0.12 0.37 0.54 0.32 0.88 0.66 0.84 0.68 0.77 0.99 1.02 1.36 2.39 2.09 1.63 1.19 1.08 1.29 1.65 1.58 1.83 1.74 1.14 0.85 0.51 1.18 1.17 1.29 1.22
0.01 0.00 0.00 0.01 0.01 0.02 0.01 0.01 0.00 0.01 0.01 0.00 0.00 0.00 0.00 0.00 0.00 0.00 0.00 0.00 0.00 0.00 0.00 0.00 0.00 0.00 0.00 0.00 0.00 0.00 0.00 0.00 0.00 0.00 0.00 0.00 0.00 0.00 0.00 0.00 0.00 0.00 0.00 0.00 0.00 0.00 0.00 0.00 0.00 0.00 0.00 0.00 0.00 0.01 0.01 0.10 0.01 0.02 0.03 0.19 0.15 0.32 0.87 0.56 0.59 0.25 0.15 0.66 1.31 1.04 1.28 2.02 1.77 1.65 1.44 1.43 1.01 1.48 2.58 1.98 2.08 1.05 1.13 0.59 0.81 1.15 0.64 1.19
0.01 0.01 0.00 0.00 0.00 0.02 0.01 0.00 0.01 0.01 0.02 0.00 0.00 0.00 0.00 0.00 0.00 0.00 0.00 0.00 0.00 0.00 0.00 0.00 0.00 0.00 0.00 0.00 0.00 0.00 0.00 0.00 0.00 0.00 0.00 0.00 0.00 0.00 0.00 0.00 0.00 0.00 0.00 0.00 0.00 0.00 0.00 0.00 0.00 0.00 0.00 0.00 0.00 0.00 0.00 0.00 0.01 0.00 0.00 0.07 0.27 0.44 0.34 0.45 0.55 0.34 0.49 0.79 1.05 1.03 0.92 1.38 1.83 1.31 1.42 1.04 1.22 2.13 2.35 1.43 1.58 1.38 1.18 0.91 0.81 0.79 0.81 0.78
0.00 0.00 0.00 0.00 0.00 0.00 0.01 0.00 0.00 0.01 0.03 0.00 0.00 0.00 0.00 0.00 0.00 0.00 0.00 0.00 0.00 0.00 0.00 0.00 0.00 0.00 0.00 0.00 0.00 0.00 0.00 0.00 0.00 0.00 0.00 0.00 0.00 0.00 0.00 0.00 0.00 0.00 0.00 0.00 0.00 0.00 0.00 0.00 0.00 0.00 0.00 0.00 0.00 0.00 0.00 0.00 0.00 0.01 0.03 0.11 0.49 0.21 0.52 0.52 0.53 0.86 1.21 1.31 1.57 0.65 1.17 1.15 1.63 2.01 1.42 1.48 1.28 1.54 2.09 2.43 1.74 1.43 0.95 0.97 1.09 0.76 1.14 1.19
0.00 0.00 0.00 0.00 0.00 0.00 0.00 0.01 0.00 0.02 0.02 0.00 0.00 0.00 0.00 0.00 0.00 0.00 0.00 0.00 0.00 0.00 0.00 0.00 0.00 0.00 0.00 0.00 0.00 0.00 0.00 0.00 0.00 0.00 0.00 0.00 0.00 0.00 0.00 0.00 0.00 0.00 0.00 0.00 0.00 0.00 0.00 0.00 0.00 0.00 0.00 0.00 0.00 0.00 0.00 0.00 0.00 0.00 0.03 0.28 0.24 0.52 0.53 0.48 0.52 0.50 1.91 1.14 1.86 1.19 1.34 1.18 1.50 1.89 2.26 1.31 0.86 0.86 1.20 1.83 2.65 1.57 1.69 1.07 1.06 1.08 1.90 1.01
0.00 0.00 0.00 0.00 0.00 0.00 0.00 0.01 0.01 0.02 0.00 0.00 0.00 0.00 0.00 0.00 0.00 0.00 0.00 0.00 0.00 0.00 0.00 0.00 0.00 0.00 0.00 0.00 0.00 0.00 0.00 0.00 0.00 0.00 0.00 0.00 0.00 0.00 0.00 0.00 0.00 0.00 0.00 0.00 0.00 0.00 0.00 0.00 0.00 0.00 0.00 0.00 0.00 0.00 0.00 0.00 0.00 0.00 0.03 0.04 0.19 0.14 0.19 0.70 0.69 0.18 0.78 0.49 0.85 1.04 1.11 1.79 2.43 2.20 1.87 2.12 1.07 1.80 1.28 1.74 2.71 2.88 2.91 1.00 0.59 1.01 0.87 1.13
0.00 0.01 0.00 0.00 0.00 0.00 0.01 0.00 0.02 0.01 0.00 0.00 0.00 0.00 0.00 0.00 0.00 0.00 0.00 0.00 0.00 0.00 0.00 0.00 0.00 0.00 0.00 0.00 0.00 0.00 0.00 0.00 0.00 0.00 0.00 0.00 0.00 0.00 0.00 0.00 0.00 0.00 0.00 0.00 0.00 0.00 0.00 0.00 0.00 0.00 0.00 0.00 0.00 0.00 0.00 0.00 0.00 0.00 0.01 0.02 0.05 0.04 0.12 0.03 0.48 0.31 0.75 0.58 0.43 1.18 1.12 2.54 2.33 2.11 1.88 2.11 1.94 2.02 1.70 1.59 1.98 1.94 2.19 1.24 1.50 1.26 1.25 1.39
0.01 0.01 0.01 0.00 0.00 0.01 0.00 0.01 0.00 0.00 0.00 0.00 0.00 0.00 0.00 0.00 0.00 0.00 0.00 0.00 0.00 0.00 0.00 0.00 0.00 0.00 0.00 0.00 0.00 0.00 0.00 0.00 0.00 0.00 0.00 0.00 0.00 0.00 0.00 0.00 0.00 0.00 0.00 0.00 0.00 0.00 0.00 0.00 0.00 0.00 0.00 0.00 0.00 0.00 0.00 0.00 0.00 0.00 0.00 0.00 0.00 0.01 0.23 0.01 0.11 0.30 0.35 0.73 0.58 0.53 0.99 1.36 1.78 1.36 1.06 1.39 1.68 1.72 1.27 1.00 1.14 1.67 2.40 2.48 1.54 1.01 1.24 1.29
0.01 0.01 0.01 0.00 0.01 0.00 0.02 0.00 0.00 0.00 0.00 0.00 0.00 0.00 0.00 0.00 0.00 0.00 0.00 0.00 0.00 0.00 0.00 0.00 0.00 0.00 0.00 0.00 0.00 0.00 0.00 0.01 0.00 0.00 0.00 0.00 0.00 0.00 0.00 0.00 0.00 0.00 0.00 0.00 0.00 0.00 0.00 0.00 0.00 0.00 0.00 0.00 0.00 0.00 0.00 0.00 0.01 0.00 0.00 0.00 0.00 0.00 0.01 0.10 0.55 1.03 0.19 0.33 0.91 0.40 0.52 1.19 0.83 1.46 1.10 0.89 0.93 1.08 1.67 1.27 1.07 1.38 1.66 1.65 1.68 1.79 1.00 1.41
0.00 0.00 0.01 0.01 0.01 0.02 0.00 0.00 0.00 0.00 0.00 0.00 0.00 0.00 0.00 0.00 0.00 0.00 0.00 0.09 0.03 0.00 0.00 0.00 0.00 0.00 0.00 0.00 0.00 0.00 0.02 0.03 0.00 0.00 0.00 0.00 0.00 0.00 0.00 0.00 0.00 0.00 0.00 0.00 0.00 0.00 0.00 0.00 0.00 0.00 0.00 0.00 0.00 0.00 0.00 0.00 0.00 0.00 0.00 0.00 0.01 0.00 0.05 0.14 0.14 0.17 0.10 0.01 0.51 0.25 0.23 0.42 0.74 0.78 0.54 0.63 0.62 0.64 0.99 1.07 1.23 1.48 1.42 1.52 1.52 0.98 1.14 0.88
0.00 0.00 0.00 0.00 0.01 0.03 0.00 0.00 0.00 0.00 0.00 0.00 0.00 0.00 0.00 0.00 0.00 0.00 0.00 0.15 0.02 0.00 0.00 0.00 0.00 0.00 0.00 0.00 0.00 0.00 0.01 0.00 0.01 0.00 0.00 0.00 0.00 0.00 0.00 0.00 0.00 0.00 0.00 0.00 0.00 0.00 0.00 0.00 0.00 0.00 0.00 0.00 0.00 0.00 0.00 0.00 0.00 0.01 0.00 0.01 0.00 0.00 0.00 0.00 0.01 0.04 0.03 0.19 0.46 0.36 0.29 0.47 0.30 0.48 0.49 0.46 0.93 0.84 0.60 0.79 0.54 1.15 0.89 1.35 1.37 0.96 0.83 0.55
0.00 0.00 0.00 0.01 0.00 0.01 0.00 0.00 0.00 0.00 0.00 0.00 0.00 0.00 0.00 0.00 0.00 0.00 0.05 0.12 0.00 0.00 0.00 0.00 0.00 0.00 0.00 0.00 0.00 0.00 0.00 0.00 0.01 0.00 0.00 0.00 0.00 0.00 0.00 0.00 0.00 0.00 0.00 0.00 0.00 0.00 0.00 0.00 0.00 0.00 0.00 0.00 0.00 0.00 0.00 0.00 0.01 0.00 0.00 0.00 0.02 0.00 0.00 0.06 0.00 0.04 0.30 0.04 0.24 0.35 0.13 0.33 0.57 0.60 0.79 0.81 0.62 0.59 0.89 0.80 0.68 0.70 1.08 0.95 1.09 0.73 0.91 0.55
0.01 0.00 0.01 0.01 0.01 0.01 0.00 0.00 0.00 0.00 0.00 0.00 0.00 0.00 0.00 0.00 0.00 0.11 0.05 0.08 0.00 0.00 0.00 0.00 0.00 0.00 0.00 0.00 0.00 0.00 0.00 0.00 0.00 0.00 0.00 0.00 0.00 0.00 0.00 0.00 0.00 0.00 0.00 0.00 0.00 0.00 0.00 0.00 0.00 0.00 0.00 0.00 0.00 0.00 0.00 0.00 0.00 0.00 0.00 0.02 0.06 0.00 0.02 0.01 0.01 0.11 0.11 0.13 0.15 0.06 0.07 0.05 0.55 0.66 0.99 1.18 0.73 0.36 0.45 0.68 0.84 1.04 1.06 0.95 0.63 1.27 0.64 0.51
0.00 0.00 0.01 0.02 0.00 0.00 0.00 0.00 0.00 0.00 0.00 0.00 0.00 0.00 0.00 0.00 0.03 0.10 0.13 0.00 0.00 0.00 0.00 0.00 0.00 0.00 0.00 0.00 0.00 0.00 0.00 0.00 0.00 0.00 0.00 0.00 0.00 0.00 0.00 0.00 0.00 0.00 0.00 0.00 0.00 0.00 0.00 0.00 0.00 0.00 0.00 0.00 0.00 0.00 0.00 0.00 0.00 0.00 0.00 0.03 0.01 0.05 0.08 0.59 0.78 0.56 0.20 0.11 0.05 0.06 0.01 0.02 0.42 0.84 0.48 0.49 0.43 0.48 0.46 0.52 0.56 0.62 0.66 0.56 0.86 1.49 0.44 0.57
0.00 0.00 0.00 0.01 0.00 0.00 0.00 0.00 0.00 0.00 0.00 0.00 0.00 0.00 0.00 0.24 0.10 0.10 0.03 0.00 0.04 0.00 0.03 0.00 0.00 0.00 0.00 0.00 0.00 0.00 0.00 0.00 0.00 0.00 0.00 0.00 0.00 0.00 0.00 0.04 0.00 0.00 0.00 0.00 0.01 0.00 0.00 0.00 0.00 0.00 0.00 0.00 0.00 0.00 0.00 0.00 0.00 0.00 0.00 0.02 0.07 0.53 0.30 0.45 0.42 0.31 0.21 0.16 0.15 0.01 0.02 0.27 0.15 0.49 0.62 0.43 0.38 0.56 0.58 0.47 0.31 0.34 0.38 0.24 0.51 0.56 0.45 0.36
0.00 0.00 0.00 0.00 0.00 0.00 0.00 0.00 0.00 0.00 0.00 0.00 0.00 0.00 0.02 0.11 0.35 0.09 0.04 0.00 0.03 0.00 0.00 0.00 0.00 0.00 0.00 0.00 0.00 0.00 0.00 0.00 0.00 0.00 0.00 0.00 0.00 0.00 0.00 0.00 0.00 0.00 0.09 0.03 0.00 0.00 0.00 0.00 0.00 0.00 0.00 0.00 0.00 0.00 0.01 0.00 0.00 0.01 0.02 0.04 0.04 0.09 0.47 0.06 0.11 0.06 0.06 0.06 0.03 0.07 0.04 0.12 0.35 0.50 0.44 0.46 0.34 0.42 0.38 0.35 0.28 0.39 0.24 0.23 0.35 0.71 0.70 0.50
0.00 0.00 0.00 0.00 0.00 0.00 0.00 0.00 0.00 0.00 0.00 0.00 0.00 0.01 0.04 0.06 0.09 0.00 0.00 0.00 0.00 0.00 0.00 0.00 0.00 0.00 0.00 0.03 0.00 0.00 0.00 0.00 0.00 0.00 0.00 0.01 0.00 0.02 0.00 0.00 0.00 0.00 0.00 0.00 0.00 0.00 0.02 0.00 0.00 0.00 0.00 0.00 0.00 0.00 0.00 0.02 0.00 0.03 0.04 0.01 0.01 0.02 0.09 0.09 0.08 0.14 0.13 0.10 0.05 0.02 0.08 0.53 0.23 2.11 0.55 0.27 0.37 0.62 0.65 0.62 0.26 0.15 0.26 0.12 0.17 0.19 0.43 0.77
0.01 0.00 0.00 0.00 0.00 0.00 0.00 0.00 0.00 0.00 0.00 0.00 0.00 0.12 0.23 0.10 0.05 0.03 0.03 0.00 0.00 0.00 0.00 0.00 0.00 0.00 0.02 0.00 0.00 0.00 0.00 0.01 0.00 0.00 0.01 0.02 0.05 0.01 0.01 0.00 0.00 0.00 0.00 0.00 0.00 0.00 0.00 0.00 0.00 0.00 0.00 0.00 0.00 0.00 0.00 0.01 0.00 0.00 0.01 0.00 0.02 0.01 0.00 0.07 0.09 0.04 0.10 0.21 0.12 0.25 0.27 0.46 0.85 0.31 0.64 0.30 0.17 0.37 0.45 0.79 0.48 0.24 0.33 0.23 0.21 0.15 0.14 0.20
0.00 0.00 0.00 0.00 0.00 0.00 0.00 0.00 0.00 0.00 0.00 0.00 0.03 0.10 0.23 0.00 0.12 0.00 0.01 0.00 0.00 0.01 0.00 0.00 0.00 0.00 0.00 0.01 0.00 0.01 0.00 0.01 0.00 0.02 0.02 0.01 0.00 0.00 0.00 0.00 0.00 0.00 0.00 0.00 0.01 0.14 0.00 0.02 0.00 0.00 0.00 0.00 0.00 0.00 0.00 0.00 0.10 0.13 0.02 0.03 0.03 0.00 0.00 0.01 0.03 0.01 0.06 0.08 0.11 0.08 0.09 0.30 0.23 0.42 0.37 0.93 0.57 0.47 0.32 0.49 0.70 0.44 0.62 0.51 0.27 0.74 0.38 0.37
0.00 0.00 0.00 0.00 0.00 0.00 0.00 0.00 0.00 0.00 0.00 0.02 0.10 0.23 0.02 0.00 0.00 0.00 0.00 0.00 0.00 0.00 0.00 0.01 0.01 0.01 0.01 0.01 0.01 0.01 0.03 0.00 0.00 0.01 0.09 0.01 0.02 0.00 0.00 0.00 0.00 0.00 0.00 0.00 0.00 0.00 0.00 0.02 0.00 0.00 0.00 0.00 0.00 0.00 0.00 0.00 0.00 0.01 0.03 0.14 0.01 0.00 0.00 0.01 0.12 0.14 0.10 0.14 0.28 0.09 0.41 0.66 0.28 1.42 0.32 0.55 0.81 0.81 0.46 1.08 0.85 0.45 0.60 0.71 0.80 0.24 0.33 0.65
0.00 0.00 0.00 0.00 0.00 0.00 0.00 0.00 0.00 0.00 0.00 0.07 0.08 0.01 0.00 0.01 0.00 0.00 0.00 0.00 0.00 0.00 0.02 0.06 0.00 0.00 0.02 0.00 0.00 0.00 0.00 0.02 0.03 0.01 0.14 0.00 0.08 0.01 0.00 0.00 0.00 0.00 0.00 0.00 0.01 0.03 0.00 0.02 0.00 0.00 0.00 0.00 0.00 0.00 0.00 0.00 0.00 0.00 0.01 0.01 0.02 0.22 0.08 0.04 0.00 0.08 0.15 0.18 0.29 0.09 0.26 0.32 0.36 0.76 0.58 0.43 0.50 0.41 0.67 0.41 0.59 0.50 0.57 0.82 0.91 1.14 0.92 0.84
0.00 0.00 0.00 0.00 0.00 0.00 0.00 0.00 0.00 0.00 0.06 0.17 0.12 0.05 0.02 0.01 0.00 0.00 0.00 0.00 0.00 0.00 0.05 0.05 0.02 0.00 0.00 0.01 0.00 0.00 0.01 0.02 0.00 0.01 0.08 0.01 0.10 0.00 0.00 0.00 0.00 0.00 0.00 0.00 0.00 0.00 0.00 0.02 0.03 0.00 0.00 0.00 0.00 0.00 0.03 0.00 0.00 0.00 0.00 0.04 0.00 0.01 0.05 0.21 0.09 0.32 0.02 0.22 0.05 0.51 0.46 0.83 0.47 0.80 0.42 0.91 0.51 0.64 0.35 0.33 0.46 0.43 0.63 0.45 0.87 0.73 0.59 0.50
0.00 0.00 0.00 0.00 0.00 0.00 0.00 0.00 0.00 0.01 0.04 0.23 0.09 0.07 0.01 0.01 0.00 0.00 0.00 0.00 0.00 0.00 0.01 0.02 0.00 0.01 0.02 0.00 0.00 0.01 0.01 0.01 0.02 0.03 0.00 0.01 0.00 0.00 0.00 0.00 0.00 0.00 0.00 0.00 0.00 0.00 0.01 0.00 0.03 0.01 0.00 0.00 0.06 0.00 0.01 0.00 0.03 0.04 0.01 0.03 0.03 0.01 0.06 0.03 0.04 0.04 0.15 0.24 0.13 0.31 0.73 1.05 0.99 1.34 1.13 1.03 0.97 1.00 0.91 0.48 0.59 0.38 0.49 0.52 0.66 0.90 0.49 0.34
0.00 0.00 0.00 0.00 0.00 0.00 0.00 0.00 0.03 0.03 0.09 0.13 0.01 0.04 0.00 0.01 0.00 0.00 0.00 0.00 0.01 0.00 0.00 0.00 0.00 0.03 0.02 0.00 0.00 0.00 0.01 0.01 0.02 0.03 0.01 0.01 0.00 0.01 0.00 0.00 0.00 0.01 0.00 0.00 0.00 0.00 0.01 0.00 0.03 0.02 0.00 0.03 0.02 0.00 0.00 0.00 0.00 0.06 0.12 0.25 0.06 0.10 0.15 0.08 0.32 0.01 0.03 0.03 0.06 0.08 0.53 0.71 0.81 0.39 0.80 0.67 0.92 0.94 0.47 0.43 0.44 0.46 0.38 0.57 0.61 0.87 0.76 0.50
0.00 0.03 0.00 0.00 0.00 0.00 0.00 0.03 0.02 0.00 0.02 0.06 0.12 0.01 0.01 0.01 0.02 0.02 0.01 0.01 0.02 0.02 0.01 0.00 0.00 0.00 0.00 0.02 0.01 0.00 0.00 0.01 0.01 0.02 0.02 0.03 0.03 0.01 0.00 0.00 0.00 0.00 0.00 0.01 0.00 0.00 0.00 0.00 0.00 0.02 0.01 0.02 0.00 0.00 0.00 0.00 0.00 0.00 0.05 0.16 0.11 0.13 0.05 0.09 0.06 0.25 0.01 0.10 0.03 0.23 0.17 1.23 0.23 0.54 0.47 0.43 0.42 0.77 0.48 0.40 0.27 0.23 0.52 0.37 0.68 0.60 0.42 0.86
0.00 0.00 0.00 0.00 0.00 0.00 0.00 0.04 0.01 0.02 0.02 0.03 0.00 0.05 0.01 0.01 0.02 0.03 0.04 0.04 0.06 0.05 0.04 0.02 0.02 0.02 0.01 0.01 0.00 0.03 0.02 0.01 0.02 0.04 0.02 0.03 0.06 0.02 0.01 0.00 0.00 0.00 0.00 0.00 0.00 0.00 0.00 0.01 0.02 0.00 0.00 0.00 0.00 0.00 0.00 0.00 0.00 0.05 0.01 0.00 0.01 0.03 0.07 0.12 0.21 0.21 0.15 0.18 0.08 0.11 0.22 1.05 0.63 0.39 0.60 0.40 0.45 0.43 0.57 0.73 0.60 0.52 0.47 0.36 0.23 0.44 0.42 0.49
0.00 0.00 0.00 0.00 0.00 0.00 0.01 0.06 0.02 0.01 0.02 0.01 0.02 0.03 0.01 0.03 0.02 0.05 0.08 0.08 0.03 0.01 0.05 0.03 0.02 0.06 0.08 0.01 0.00 0.04 0.00 0.13 0.02 0.03 0.03 0.04 0.06 0.02 0.02 0.01 0.00 0.01 0.01 0.00 0.01 0.00 0.05 0.12 0.01 0.07 0.05 0.09 0.04 0.00 0.01 0.00 0.00 0.07 0.06 0.15 0.02 0.00 0.01 0.01 0.00 0.04 0.08 0.08 0.13 0.10 0.35 1.10 0.95 0.50 0.41 0.56 0.32 0.29 0.37 0.53 0.66 0.48 0.34 0.23 0.42 0.49 0.70 0.76
0.02 0.00 0.00 0.00 0.00 0.00 0.01 0.04 0.05 0.04 0.01 0.04 0.02 0.02 0.05 0.07 0.06 0.03 0.03 0.07 0.06 0.08 0.04 0.11 0.11 0.04 0.01 0.02 0.01 0.00 0.00 0.08 0.10 0.03 0.04 0.06 0.04 0.03 0.02 0.02 0.01 0.01 0.01 0.00 0.00 0.00 0.02 0.06 0.05 0.14 0.08 0.28 0.35 0.38 0.38 0.29 0.06 0.10 0.07 0.05 0.04 0.02 0.07 0.05 0.07 0.08 0.02 0.06 0.03 0.14 0.63 0.52 0.46 0.32 0.20 0.36 0.50 0.22 0.44 0.55 0.56 0.71 0.40 0.33 0.47 0.54 0.62 0.82
0.01 0.08 0.00 0.00 0.00 0.04 0.02 0.01 0.02 0.03 0.06 0.04 0.01 0.02 0.02 0.07 0.09 0.09 0.05 0.05 0.02 0.08 0.08 0.13 0.05 0.02 0.07 0.03 0.04 0.03 0.03 0.03 0.04 0.22 0.09 0.11 0.06 0.05 0.04 0.03 0.03 0.02 0.02 0.01 0.01 0.01 0.02 0.03 0.03 0.02 0.14 0.19 0.24 0.23 0.02 0.01 0.00 0.04 0.08 0.02 0.09 0.04 0.03 0.01 0.03 0.10 0.11 0.14 0.15 0.38 0.28 0.40 0.42 0.32 0.17 0.29 0.80 0.42 0.39 0.46 0.41 0.32 0.83 0.44 0.29 0.63 0.97 1.03
0.14 0.06 0.00 0.05 0.03 0.05 0.01 0.03 0.07 0.06 0.13 0.06 0.08 0.04 0.05 0.03 0.05 0.09 0.12 0.09 0.13 0.05 0.05 0.11 0.15 0.08 0.11 0.06 0.10 0.11 0.07 0.09 0.05 0.06 0.21 0.14 0.11 0.10 0.05 0.04 0.05 0.03 0.05 0.03 0.02 0.00 0.00 0.03 0.01 0.02 0.09 0.01 0.03 0.07 0.01 0.00 0.00 0.00 0.00 0.02 0.00 0.01 0.02 0.02 0.08 0.10 0.11 0.11 0.09 0.31 0.25 0.23 0.44 0.33 0.41 0.37 0.33 0.60 0.59 0.49 0.57 0.43 0.80 1.08 0.76 0.88 0.91 1.24
0.20 0.10 0.03 0.30 0.15 0.06 0.02 0.06 0.05 0.09 0.07 0.05 0.06 0.13 0.06 0.03 0.05 0.09 0.08 0.10 0.17 0.21 0.16 0.13 0.10 0.14 0.15 0.17 0.08 0.10 0.16 0.16 0.08 0.26 0.10 0.08 0.07 0.10 0.11 0.09 0.07 0.10 0.07 0.04 0.02 0.01 0.03 0.12 0.10 0.01 0.02 0.01 0.02 0.11 0.03 0.03 0.02 0.07 0.00 0.00 0.00 0.00 0.05 0.02 0.01 0.02 0.04 0.10 0.38 0.37 0.20 0.20 0.53 0.49 0.61 0.72 0.54 0.79 0.74 0.65 0.74 0.81 0.80 1.49 1.01 1.34 1.62 1.65
0.11 0.11 0.03 0.07 0.26 0.14 0.13 0.12 0.03 0.09 0.05 0.07 0.16 0.07 0.09 0.04 0.04 0.05 0.07 0.06 0.07 0.35 0.18 0.15 0.11 0.13 0.16 0.17 0.12 0.17 0.12 0.18 0.29 0.13 0.13 0.14 0.10 0.11 0.16 0.14 0.10 0.09 0.12 0.08 0.06 0.05 0.01 0.06 0.13 0.02 0.08 0.01 0.02 0.01 0.01 0.13 0.14 0.05 0.03 0.01 0.01 0.01 0.01 0.01 0.04 0.05 0.13 0.13 0.13 0.20 0.25 0.33 0.68 0.86 0.70 0.61 0.77 0.98 1.39 0.96 0.54 0.70 1.37 1.55 2.08 1.38 1.88 1.91
0.20 0.34 0.87 0.14 0.12 0.12 0.05 0.07 0.08 0.12 0.09 0.18 0.18 0.10 0.40 0.20 0.11 0.04 0.03 0.03 0.11 0.12 0.32 0.11 0.08 0.13 0.13 0.16 0.22 0.15 0.12 0.10 0.17 0.19 0.14 0.08 0.08 0.08 0.12 0.14 0.22 0.22 0.15 0.22 0.08 0.11 0.01 0.32 0.01 0.04 0.13 0.11 0.02 0.02 0.03 0.02 0.08 0.10 0.12 0.04 0.01 0.02 0.00 0.01 0.01 0.11 0.18 0.31 0.19 0.24 0.25 0.40 0.46 0.49 0.66 1.15 0.98 0.93 0.94 1.25 1.42 1.20 1.16 1.74 2.08 2.83 1.41 1.09
0.37 0.51 0.72 0.79 0.43 0.12 0.25 0.09 0.11 0.16 0.10 0.07 0.09 0.25 0.07 0.13 0.18 0.11 0.09 0.23 0.14 0.24 0.20 0.13 0.10 0.09 0.13 0.16 0.16 0.15 0.11 0.07 0.03 0.03 0.04 0.04 0.15 0.06 0.13 0.25 0.15 0.18 0.20 0.18 0.12 0.16 0.02 0.14 0.00 0.02 0.06 0.15 0.07 0.07 0.06 0.09 0.02 0.23 0.18 0.15 0.15 0.04 0.04 0.08 0.14 0.38 0.19 0.55 0.56 0.51 0.70 1.11 1.35 0.97 0.98 1.49 1.12 0.74 0.76 0.96 1.54 1.25 1.13 2.08 1.97 1.29 2.05 2.37
0.53 0.63 0.61 1.10 0.67 0.15 0.16 0.07 0.09 0.12 0.12 0.11 0.23 0.18 0.22 0.21 0.11 0.22 0.30 0.27 0.32 0.39 0.16 0.13 0.20 0.13 0.10 0.12 0.19 0.16 0.12 0.04 0.02 0.00 0.02 0.02 0.01 0.01 0.03 0.06 0.07 0.10 0.18 0.20 0.17 0.17 0.12 0.14 0.08 0.10 0.08 0.13 0.10 0.15 0.23 0.09 0.06 0.10 0.10 0.10 0.16 0.12 0.25 0.25 0.10 0.09 0.19 0.27 0.74 0.83 1.00 0.80 0.91 1.03 0.76 0.80 0.55 0.28 0.44 0.57 1.21 2.06 1.86 1.98 2.05 1.47 1.48 1.91